Regional Weather Roundup
Issued by NWS

Home | Current Version | Previous Version | Text Only | Print | Product List | Glossary Off
Versions: 1 2 3 4 5 6 7 8 9 10 11 12 13 14 15 16 17 18 19 20 21 22 23 24 25 26 27 28 29 30 31 32 33 34 35 36 37 38 39 40 41 42 43 44 45 46 47 48 49 50

000
ASUS43 KLOT 230300
RWRIL

ILLINOIS REGIONAL WEATHER ROUNDUP
NATIONAL WEATHER SERVICE CHICAGO/ROMEOVILLE IL
1000 PM CDT FRI MAY 22 2015

NOTE: "FAIR" INDICATES FEW OR NO CLOUDS BELOW 12,000 FEET WITH NO
SIGNIFICANT WEATHER AND/OR OBSTRUCTIONS TO VISIBILITY.

* THESE STATIONS ARE NOT UNDER NWS QUALITY CONTROL. THEY ALSO MAY NOT
  REPORT WEATHER SUCH AS PRECIPITATION OR FOG.

ILZ001-002-007-009-015-016-024-230400-
NORTHWEST ILLINOIS

CITY           SKY/WX    TMP DP  RH WIND       PRES   REMARKS
MOLINE         CLOUDY    60  48  64 SW5       30.22R
STERLING*      CLOUDY    63  39  42 E9        30.25R
$$

ILZ003-004-008-010-011-017-018-230400-
NORTH CENTRAL ILLINOIS

CITY           SKY/WX    TMP DP  RH WIND       PRES   REMARKS
ROCKFORD       CLOUDY    58  34  40 E5        30.29R
$$

ILZ005-006-012>014-019>023-230400-
NORTHEAST ILLINOIS

CITY           SKY/WX    TMP DP  RH WIND       PRES   REMARKS
CHICAGO-OHARE  CLOUDY    53  29  39 E7        30.28R
CHICAGO-MIDWAY CLOUDY    56  35  45 E9        30.29R
AURORA         CLOUDY    56  31  38 E10       30.28R
WAUKEGAN       CLOUDY    46  32  58 E5        30.29R
DUPAGE AIRPORT CLOUDY    54  31  41 E5        30.28R
WHEELING       CLOUDY    50  31  48 E6        30.31R
NORTHERLY ISL    N/A     51  40  65 NE6         N/A
$$

LMZ740>746-230400-
SOUTHERN LAKE MICHIGAN

STATION/POSITION SKY/WX   TEMP    WIND        PRES    VSBY  WAVE
                          AIR SEA DIR/SP/G                  HT/PER
                          (F)     (DEG/KT/KT) (MB)    (MI)  (FT/S)
SOUTHERN BUOY              46 38   90/  8/  8 1026.4R         0
HARRISON CRIB              50      70/ 10/ 12   N/A
BURNHAM HARBOR             51      70/  5/  7   N/A
CALUMET HARBOR             52      60/  5/  7   N/A
BURNS HARBOR               56      70/  6/  8 1025.4R
MICHIGAN CITY              56      60/  9/ 10   N/A
MICHIGAN CITY 6N           53 51   80/  8/ 10   N/A           2/ 3
ST. JOSEPH                 55 54   90/ 10/ 10   N/A           1/ 4
$$

ILZ025>027-034>036-040-047-049-050-058-095>099-230400-
WEST-CENTRAL ILLINOIS

CITY           SKY/WX    TMP DP  RH WIND       PRES   REMARKS
QUINCY         CLOUDY    64  53  67 S3        30.25S
$$

ILZ028>032-037-038-041>044-048-051>054-059>061-230400-
CENTRAL ILLINOIS

CITY           SKY/WX    TMP DP  RH WIND       PRES   REMARKS
DECATUR        CLOUDY    68  47  46 SW7       30.25R
PEORIA         CLOUDY    70  42  36 SW5       30.24R
SPRINGFIELD    CLOUDY    68  49  50 W5        30.25R
TAYLORVILLE    NOT AVBL
$$

ILZ033-039-045-046-055>057-062-063-230400-
EAST-CENTRAL ILLINOIS

CITY           SKY/WX    TMP DP  RH WIND       PRES   REMARKS
CHAMPAIGN      CLOUDY    67  44  43 SW5       30.25R
MATTOON        CLOUDY    66  47  50 SW8       30.25R
$$

ILZ079-100>102-230400-
SOUTHWEST ILLINOIS

CITY           SKY/WX    TMP DP  RH WIND       PRES   REMARKS
ALTON          CLOUDY    64  55  72 CALM      30.26
CAHOKIA*       MOCLDY    65  54  67 CALM      30.25R
$$

ILZ064>066-069>071-074>076-080>082-084>086-088>090-092>094-230400-
SOUTH-CENTRAL ILLINOIS

CITY           SKY/WX    TMP DP  RH WIND       PRES   REMARKS
CARBONDALE     MOCLDY    61  54  77 CALM      30.28R
MT. VERNON     CLOUDY    55  50  82 CALM      30.29R
$$

ILZ067-068-072-073-078-083-087-091-230400-
SOUTHEAST ILLINOIS

CITY           SKY/WX    TMP DP  RH WIND       PRES   REMARKS
LAWRENCEVILLE  CLOUDY    63  55  75 S3        30.27R
$$

ABBREVIATIONS USED IN REMARKS
   TC - TEMPERATURE IN CELSIUS
  WCI - WIND CHILL INDEX
   HX - HEAT INDEX
  VSB - VISIBILITY
$$



USA.gov is the U.S. government's official web portal to all federal, state and local government web resources and services.